Location: Blaignac
(44.5529°N, 0.0560°W)
Time: 11:03:56
(UTC+00:00)

Daily predictions for brighter satellites

Satellite Brightness Start Highest point End
(mag) Time Altitude Azimuth Time Altitude Azimuth Time Altitude Azimuth
Lacrosse 5 2.8 17:29:16 10° NW 17:33:48 32° NNE 17:38:20 10° E
Cosmos 1726 Rocket 3.5 17:31:59 10° S 17:36:21 73° E 17:40:43 10° NNE
Envisat 3.2 17:31:36 10° SE 17:36:28 49° ENE 17:41:22 10° N
Cosmos 921 Rocket 3.1 17:33:44 10° SSW 17:38:14 84° ESE 17:42:43 10° NNE
Shenzhou-11 Module 2.2 17:36:03 10° W 17:38:48 56° S 17:41:30 10° ESE
Lacrosse 5 rocket 3.4 17:38:17 10° WNW 17:41:31 27° SW 17:44:53 10° S
Cosmos 1356 3.6 17:41:18 10° S 17:44:37 51° E 17:47:59 10° NNE
Unknown 2.9 17:41:34 10° NW 17:44:39 61° NNE 17:47:45 10° ESE
Meteor 2-10 4.1 17:40:46 10° S 17:45:41 53° E 17:50:35 10° NNE
Falcon 9 debris 4.3 17:43:39 10° NW 17:46:43 29° NNE 17:49:37 11° E
Cosmos 1328 3.8 17:46:03 10° N 17:49:58 57° ENE 17:53:51 10° SSE
Cosmos 1833 Rocket 3.1 17:45:21 10° NNW 17:50:39 40° ENE 17:55:55 10° SE
YAOGAN 6 2.9 17:51:20 10° SE 17:54:48 43° ENE 17:58:16 10° N
Cosmos 1939 Rocket 4.2 17:52:36 10° ESE 17:55:33 20° ENE 17:58:33 10° NNE
Cosmos 1271 Rocket 3.9 17:52:36 10° NNW 17:56:28 49° W 18:00:20 10° S
USA 116 4.2 17:55:49 10° NE 17:58:42 29° E 18:01:46 10° SSE
Cosmos 2058 Rocket 3.0 17:55:19 10° S 17:59:40 85° E 18:04:02 10° N
USA 238 DEB 4.1 17:53:51 10° S 18:00:01 41° ESE 18:06:22 10° NE
USA 238 4.1 17:53:58 10° S 18:00:07 41° ESE 18:06:28 10° NE
Unknown 4.2 18:02:43 10° NW 18:05:55 32° NNE 18:08:00 18° ENE
CZ-2D R/B 4.2 18:04:03 10° SE 18:07:20 28° ENE 18:10:40 10° N
COBE Rocket 4.0 18:02:43 10° N 18:07:55 88° W 18:12:56 10° SSW
Cosmos 1300 3.9 18:05:20 10° SE 18:08:12 20° E 18:11:04 10° NE
SJ 16-02 3.4 18:09:56 10° NE 18:10:33 10° NE 18:10:33 10° NE
Cosmos 1461 3.0 18:10:08 10° NNW 18:14:10 54° NE 18:17:48 13° SE
Cosmos 1339 Rocket 4.4 18:09:10 10° S 18:15:10 67° E 18:21:16 10° NNE
COSMO-SKYMED 1 2.5 18:10:54 10° NNE 18:15:17 86° E 18:19:38 10° SSW
Okean-O 4.0 18:12:36 10° S 18:16:49 42° W 18:21:03 10° NNW
CSL-04 Debris 4.1 18:13:28 10° SSE 18:18:53 73° ENE 18:24:22 10° N
Ariane Rocket 3.6 18:14:35 10° SE 18:19:11 36° ENE 18:23:50 10° N
Cosmos 2082 Rocket 2.5 18:13:53 10° NNW 18:19:25 47° ENE 18:24:36 11° SE
NOSS 3-2 (A) 3.6 18:18:23 10° S 18:23:49 47° ESE 18:29:49 10° NE
CZ-4 R/B 1.6 18:20:06 10° S 18:24:17 80° WSW 18:28:32 10° NNW
Cosmos 2084 Rocket 4.2 18:21:51 10° NNW 18:25:56 35° NE 18:27:37 25° E
Cosmos 1703 4.0 18:24:28 10° NNW 18:28:19 55° W 18:32:08 10° S
Cosmos 1605 Rocket 4.0 18:24:14 10° N 18:30:27 88° W 18:36:33 10° S
Cosmos 44 4.1 18:27:28 10° S 18:31:41 28° ESE 18:32:32 26° E
COSMOS 2406 4.2 18:27:38 10° NW 18:33:11 49° WSW 18:38:39 10° S
Cosmos 1727 Rocket 3.9 18:34:52 10° S 18:41:00 73° E 18:47:09 10° NNE
Gbstr 26 Del rocket 4.1 18:40:44 10° WNW 18:46:54 88° SSW 18:51:30 25° SE
Cosmos 2173 Rocket 4.1 18:42:38 10° N 18:48:44 50° ENE 18:54:09 13° SSE
NOSS 3-2 (C) 3.6 18:43:30 10° S 18:48:55 46° ESE 18:51:57 26° ENE
Cosmos 1076 Rocket 3.4 18:44:58 10° N 18:49:21 67° E 18:52:55 15° SSE
ATLAS 5 CENTAUR R/B 4.4 18:50:44 10° NW 18:53:03 13° NNW 18:55:31 10° N
Cosmos 1812 Rocket 3.5 18:49:35 10° S 18:54:00 87° W 18:58:30 10° N
Cosmos 1802 Rocket 4.3 18:48:08 10° N 18:54:20 47° ENE 18:57:43 25° SE
ADEOS Rocket 4.0 18:48:29 10° NNE 18:55:14 33° E 19:01:28 10° SSE
EO 1 Delta rocket 4.5 18:52:04 10° S 18:56:35 57° W 19:01:29 10° NNW
SPOT 3 Rocket 4.4 18:57:17 31° NE 18:57:17 31° NE 19:01:19 10° N
Cosmos 2278 Rocket 2.9 18:53:42 10° SW 18:59:15 54° WNW 19:04:50 10° NNE
Abrixas rocket 2.8 18:57:14 10° W 18:59:58 46° NNW 18:59:58 46° NNW
Cosmos 2297 3.7 18:56:20 10° S 19:01:52 55° ESE 19:04:47 27° NE
Unknown 3.1 18:58:58 10° WNW 19:02:09 76° NW 19:02:09 76° NW
Cosmos 967 Rocket 4.5 18:56:08 10° NW 19:02:39 89° SW 19:06:56 23° SSE
YAOGAN 1 4.0 18:59:53 10° SSW 19:03:56 39° W 19:08:01 10° NNW
Unknown 4.4 19:03:20 10° NW 19:06:23 35° N 19:06:23 35° N
Cosmos 1000 Rocket 4.4 19:01:59 10° S 19:08:04 64° E 19:14:15 10° NNE
FALCON 9 DEB 3.5 19:04:36 10° NW 19:07:36 64° NW 19:07:36 64° NW
Cosmos 2058 2.8 19:04:25 10° N 19:08:39 78° E 19:08:58 72° SE
Cosmos 1725 Rocket 4.4 19:04:17 10° N 19:10:07 41° ENE 19:10:07 41° ENE
H-2A R/B 2.9 19:14:06 35° NE 19:14:06 35° NE 19:18:00 10° N
Shenzhou-11 Module 4.3 19:11:32 10° WSW 19:12:48 19° SW 19:12:48 19° SW
Cosmos 2100 Rocket 3.8 19:08:24 10° N 19:14:38 84° E 19:20:46 10° S
Lacrosse 5 1.9 19:12:07 10° NW 19:17:10 73° SW 19:18:16 53° SSE
ATLAS 3B R/B 2.7 19:12:30 10° SSW 19:18:59 52° ESE 19:19:45 50° E
Unknown 4.3 19:17:49 10° WNW 19:20:17 43° WNW 19:20:17 43° WNW
ARGOS 4.0 19:23:54 36° NNE 19:23:54 36° NNE 19:27:35 10° N
Falcon 9 debris 4.5 19:20:32 10° WNW 19:22:54 39° WNW 19:22:54 39° WNW
MOS 1 4.2 19:22:30 36° SSE 19:24:55 87° ENE 19:30:37 10° NNW
Cosmos 1898 Rocket 3.4 19:20:16 10° NNW 19:25:34 72° ENE 19:25:34 72° ENE
CENTAUR R/B 2.4 19:22:00 10° SSW 19:27:46 62° ESE 19:28:05 61° ESE
Cosmos 1939 Rocket 4.3 19:26:43 11° SSW 19:30:14 36° W 19:34:00 10° NNW
Cosmos 2016 Rocket 3.9 19:27:01 10° N 19:33:20 75° E 19:34:30 59° SE
Cosmos 1833 Rocket 4.3 19:29:30 10° NW 19:34:27 33° WSW 19:39:23 10° SSW
SL-08 R/B 4.3 19:34:44 10° N 19:40:27 70° NE 19:40:27 70° NE
SJ 16-02 3.1 19:45:42 10° NNW 19:47:34 25° NNW 19:47:34 25° NNW
USA 238 DEB 4.5 19:44:23 10° WSW 19:50:52 48° NW 19:55:39 19° NNE
USA 238 4.5 19:44:30 10° WSW 19:50:58 48° NW 19:55:43 20° NNE
CZ-2C R/B 4.5 20:03:09 33° N 20:03:09 33° N 20:06:17 10° N
Cosmos 2061 Rocket 4.3 19:56:42 10° NNW 20:02:51 63° W 20:04:07 52° SW
Cosmos 2082 Rocket 4.0 19:58:27 10° NW 20:03:13 28° WSW 20:06:32 17° SSW
ATLAS CENTAUR R/B 4.3 20:03:16 10° N 20:03:29 11° N 20:03:29 11° N
ADEOS Rocket 4.0 20:33:33 10° N 20:41:00 56° WNW 20:47:53 10° SW
H-2A R/B 4.2 20:54:44 23° NW 20:54:44 23° NW 20:57:15 10° NNW
ATLAS 3B R/B 4.2 21:03:39 10° WSW 21:07:05 27° W 21:07:05 27° W
